Location: Grainger
(51.5000°N, 113.3333°W)
Time: 18:21:06
(UTC+00:00)

Tiangong - Visible Passes

Search period start: 10 June 2023 00:00
Search period end: 20 June 2023 00:00
Orbit: 386 x 390 km, 41.5° (Epoch: 10 June)

Date Brightness Start Highest point End Pass type
(mag) Time Alt. Az. Time Alt. Az. Time Alt. Az.
10 Jun -0.1 09:29:16 14° S 09:29:16 14° S 09:30:38 10° SE visible
11 Jun -0.1 10:05:51 11° SSW 10:06:31 12° SSW 10:07:48 10° SSE visible
17 Jun 0.2 05:49:35 10° SSW 05:49:56 11° SSW 05:49:56 11° SSW visible
18 Jun -0.1 04:51:10 10° SSW 04:52:37 13° S 04:54:04 10° SE visible
19 Jun -0.2 05:28:15 10° SW 05:29:59 14° S 05:30:13 14° S visible
